Flag for Germany Weather past 2 weeks in Eckernförde, Schleswig-Holstein, Germany

Now
70 °F

Passing clouds.


Feels Like: 73 °F
Forecast: 63 / 79 °F
Wind: 5 mph from East

Location: Schleswig

Current Time: Jul 26, 2014 at 2:09:50 AM

Latest Report: Jul 26, 2014 at 1:00 AM


Visibility: 16 mi

Pressure: 29.98 "Hg

Humidity: 75%

Dew point: 62 °F

Location of EckernfördeLocation

Historic Weather in Eckernförde — Graph

°F

Eckernförde temperature yesterday

Maximum temperature yesterday: 82 °F (at 5:00 PM)
Minimum temperature yesterday: 64 °F (at 2:00 AM)
Average temperature yesterday: 73 °F

Past Weeks' High & Low Weather Summary

 TemperatureHumidityPressure
High83 °F (Jul 19, 2:00 PM)98% (Jul 14, 4:00 AM)30.23 "Hg (Jul 14, 4:00 AM)
Low51 °F (Jul 17, 5:00 AM)30% (Jul 22, 2:00 PM)29.60 "Hg (Jul 14, 3:00 AM)
Average68 °F69%30.01 "Hg
* Reported Jul 11 1:00 AM — Jul 26 1:00 AM, Eckernförde, Weather by CustomWeather, © 2014

Note: Actual official high and low records may vary slightly from our data, if they occured in-between our weather recording intervals... More about our weather records

Advertising

Eckernförde weather history for previous 24 hours

 ConditionsComfort  
Time TempWeatherWind HumidityBarometerVisibility
1:00 AM
Jul 26
70 °FPassing clouds.5 mph75%29.98 "Hg16 mi
12:00 AM71 °FPassing clouds.5 mph73%29.99 "Hg12 mi
11:00 PM
Jul 25
72 °FPassing clouds.3 mph68%29.98 "Hg16 mi
10:00 PM73 °FPassing clouds.3 mph65%29.99 "Hg19 mi
9:00 PM74 °FPassing clouds.5 mph59%29.99 "Hg19 mi
8:00 PM77 °FPassing clouds.7 mph50%29.99 "Hg22 mi
7:00 PM79 °FPassing clouds.7 mph45%29.99 "Hg22 mi
6:00 PM80 °FScattered clouds.7 mph41%29.99 "Hg22 mi
5:00 PM82 °FPartly sunny.8 mph35%30.00 "Hg22 mi
4:00 PM82 °FOvercast.8 mph38%30.01 "Hg22 mi
3:00 PM82 °FOvercast.7 mph41%30.02 "Hg22 mi
2:00 PM80 °FOvercast.8 mph43%30.03 "Hg22 mi
1:00 PM80 °FOvercast.7 mph43%30.03 "Hg22 mi
12:00 PM75 °FOvercast.6 mph60%30.05 "Hg22 mi
11:00 AM73 °FPartly sunny.7 mph64%30.05 "Hg22 mi
10:00 AM73 °FPartly sunny.7 mph62%30.05 "Hg22 mi
9:00 AM71 °FPartly sunny.6 mph64%30.05 "Hg22 mi
8:00 AM70 °FPartly sunny.3 mph69%30.05 "Hg19 mi
7:00 AM66 °FOvercast.3 mph78%30.06 "Hg19 mi
6:00 AM66 °FOvercast.3 mph79%30.06 "Hg14 mi
4:00 AM65 °FOvercast.3 mph79%30.07 "Hg16 mi
3:00 AM64 °FPassing clouds.2 mph79%30.09 "Hg16 mi
2:00 AM64 °FPassing clouds.2 mph78%30.09 "Hg16 mi
Weather by CustomWeather, © 2014

See weather overviewHow to use our weather pages